This is the latest recevied weather packets stored in our database for station/object EA7JCM-13. If no packets are shown the sender has not sent any weather packets the latest 10 day(s).
| Time | Temp. | Humidity | Pressure | Rain* | Wind** | Luminosity | Snow |
|---|---|---|---|---|---|---|---|
| 1777820402 | 20.56° C | 53% | 1009.4 hPa | 0 mm | - | - | - |
| 1777820103 | 20.56° C | 54% | 1009.3 hPa | 0 mm | - | - | - |
| 1777819802 | 20.56° C | 55% | 1009.2 hPa | 0 mm | - | - | - |
| 1777819502 | 20.56° C | 53% | 1009.5 hPa | 0 mm | - | - | - |
| 1777819203 | 21.11° C | 55% | 1009.4 hPa | 0 mm | - | - | - |
| 1777818902 | 20.56° C | 55% | 1009.5 hPa | 0 mm | - | - | - |
| 1777818603 | 20.56° C | 55% | 1009.8 hPa | 0 mm | - | - | - |
| 1777818302 | 20.56° C | 56% | 1009.8 hPa | 0 mm | - | - | - |
| 1777818002 | 20.56° C | 54% | 1009.7 hPa | 0 mm | - | - | - |
| 1777817703 | 20.56° C | 55% | 1009.8 hPa | 0 mm | - | - | - |
| 1777817402 | 20.56° C | 57% | 1009.8 hPa | 0 mm | - | - | - |
| 1777817103 | 21.11° C | 57% | 1009.8 hPa | 0 mm | - | - | - |
| 1777816802 | 20.56° C | 59% | 1010.2 hPa | 0 mm | - | - | - |
| 1777816503 | 20.56° C | 58% | 1010.2 hPa | 0 mm | - | - | - |
| 1777815902 | 20° C | 59% | 1010 hPa | 0 mm | - | - | - |
| 1777815602 | 20° C | 60% | 1010.1 hPa | 0 mm | - | - | - |
| 1777815303 | 20.56° C | 57% | 1010 hPa | 0 mm | - | - | - |
| 1777815002 | 20.56° C | 57% | 1010.1 hPa | 0 mm | - | - | - |
| 1777814703 | 20.56° C | 57% | 1009.9 hPa | 0 mm | - | - | - |
| 1777814402 | 20.56° C | 56% | 1010.1 hPa | 0 mm | - | - | - |
| 1777814102 | 21.11° C | 55% | 1010.2 hPa | 0 mm | - | - | - |
| 1777813803 | 20.56° C | 58% | 1010.1 hPa | 0 mm | - | - | - |
| 1777813503 | 20.56° C | 58% | 1010.1 hPa | 0 mm | - | - | - |
| 1777813202 | 21.11° C | 56% | 1010.5 hPa | 0 mm | - | - | - |
| 1777812903 | 21.11° C | 57% | 1010.3 hPa | 0 mm | - | - | - |
* Rain latest hour (hover to see other rain measurements)
** Current wind speed in m/s (hover to see current wind gust speed)